Regional Weather Roundup
Issued by NWS Grand Forks, ND

Home | Current Version | Previous Version | Graphics & Text | Print | Product List | Glossary On
Versions: 1 2 3 4 5 6 7 8 9 10 11 12 13 14 15 16 17 18 19 20 21 22 23 24 25 26 27 28 29 30 31 32 33 34 35 36 37 38 39 40 41 42 43 44 45 46 47 48 49 50
000
ASUS43 KFGF 302310
RWRFGF
PRAIRIE TO PINES  WEATHER ROUNDUP
NATIONAL WEATHER SERVICE EASTERN NORTH DAKOTA/GRAND FORKS ND
600 PM CDT FRI SEP 30 2016

 **SATELLITE DATA USED TO AUGMENT SKY COVER AT AUTOMATED STATIONS**
 *****  WEATHER ACROSS EASTERN NORTH DAKOTA  *****

CITY           SKY/WX    TMP DP  RH WIND       PRES   REMARKS
GRAND FORKS    CLOUDY    69  50  50 SE13      30.18F
GRAND FRKS AFB CLOUDY    68  50  52 SE10      30.18F
GRAND FRKS NWS   N/A     66 N/A N/A SE12        N/A
DEVILS LAKE    CLOUDY    63  53  70 SE5       30.17R
FARGO          CLOUDY    69  49  48 SE14G23   30.20S
WAHPETON ARPT  PTCLDY    68  46  45 SE12G18   30.21S
$$

 ***** WEATHER ACROSS CENTRAL AND WESTERN NORTH DAKOTA  *****

CITY           SKY/WX    TMP DP  RH WIND       PRES   REMARKS
BISMARCK       CLOUDY    69  47  45 SE12      30.06F
MINOT          CLOUDY    65  53  65 E8        30.06F
JAMESTOWN      MOSUNNY   68  46  45 SE18G24   30.14S
MINOT AFB      CLOUDY    60  55  81 E12       30.05F
GARRISON         N/A     65  52  62 SE7       30.06S
WILLISTON      CLOUDY    62  52  69 SE8       30.01R
DICKINSON      SUNNY     67  46  47 SE15      30.01S
HETTINGER      SUNNY     71  47  42 S14       30.04S
$$

 *****  OTHER AIRPORT OBSERVATIONS IN OUR AREA  *****

CITY           SKY/WX    TMP DP  RH WIND       PRES   REMARKS
WALHALLA       FAIR      64  61  88 S9        30.19R
GRAFTON AIRPOR FAIR      66  52  59 SE10      30.21R
VALLEY CITY AR FAIR      66  48  52 SE14      30.19S
CANDO          FAIR      63  50  63 SE13      30.18S
CAVALIER APRT  FAIR      66  52  59 SE9       30.19S
GWINNER        FAIR      70  48  46 SE18      30.19S
SHEYENNE NWR     N/A     69  44  41 S12       29.95S
ROLLA          CLOUDY    61  46  59 S12       30.16S
 ***** THE ABOVE OBSERVATIONS ARE NON NWS ARE NOT QUALITY
       CONTROLLED AND MAY MIS-REPORT RAIN FOR SNOW...
$$

  *****  WEATHER ACROSS NORTHERN MINNESOTA  *****

CITY           SKY/WX    TMP DP  RH WIND       PRES   REMARKS
FLAG ISLAND    MOCLDY    55  50  82 SE12      30.28F
WARROAD        CLEAR     61  54  77 SE6       30.29S
ROSEAU         CLOUDY    61  54  77 SE10      30.27F
HALLOCK        SUNNY     66  54  63 SE9       30.20S
THF RVR FALLS  PTCLDY    67  49  52 SE13      30.24F
BAUDETTE       CLOUDY    56  51  84 E9        30.31S
WASKISH        CLOUDY    61  54  77 E3        30.30S
CROOKSTON      MOSUNNY   66  50  55 S13       30.22S
GREENBUSH NDAW   N/A     63  54  72 SE10        N/A
$$
  *****  WEATHER ACROSS CENTRAL AND WEST MINNESOTA  *****

CITY           SKY/WX    TMP DP  RH WIND       PRES   REMARKS
FOSSTON        PTCLDY    64  52  63 SE6       30.26S
BEMIDJI        CLOUDY    61  52  72 E8        30.29S
PARK RAPIDS    CLOUDY    65  46  50 SE8       30.27R
ELBOW LAKE     FAIR      65  48  53 SE8       30.24S
WADENA         CLOUDY    64  48  55 SE8       30.25S
DETROIT LAKES  CLOUDY    63  52  67 SE7       30.26S
MOORHEAD       MOSUNNY   68  48  49 SE9G17    30.22R
FERGUS FALLS   MOSUNNY   64  52  63 SE6       30.25S
MORRIS MN      SUNNY     66  45  45 SE9       30.22S
STAPLES        CLEAR     64  46  52 E3        30.26S
$$
  *****  WEATHER ELSEWHERE ACROSS MINNESOTA  *****

CITY           SKY/WX    TMP DP  RH WIND       PRES   REMARKS
DULUTH         CLOUDY    53  51  93 E9        30.33S
INTRNTL FALLS  CLEAR     57  51  80 E6        30.32F
ELY            CLEAR     64  43  45 E7        30.32S
CLOQUET        CLOUDY    54  48  82 NE10G16   30.32S
WHEATON        NOT AVBL
BRAINERD       CLEAR     66  50  56 NE3       30.27F
HIBBING        CLEAR     63  46  54 SE8       30.30F
ALEXANDRIA     CLEAR     64  48  56 E9        30.26S
SAINT CLOUD    CLEAR     68  50  52 VRB5      30.24S
MINNEAPOLIS    PTCLDY    70  48  45 NE10      30.22S
$$

  *****  WEATHER ACROSS SOUTH DAKOTA  *****

CITY           SKY/WX    TMP DP  RH WIND       PRES   REMARKS
SIOUX FALLS    CLOUDY    71  47  42 SE8       30.18S
BROOKINGS      SUNNY     68  46  45 SE10      30.18F
WATERTOWN      SUNNY     69  48  47 SE10      30.18F
HURON          PTSUNNY   70  47  43 SE12      30.15R
SISSETON         N/A     70  48  45 SE13      30.18S
ABERDEEN       PTSUNNY   73  44  35 S13       30.15S
MITCHELL       MOSUNNY   70  45  40 S10       30.16S
PIERRE         MOSUNNY   71  46  40 SE20G28   30.06S
MOBRIDGE       PTSUNNY   70  45  40 SE18      30.06S
RAPID CITY     CLOUDY    68  53  58 SE7       30.03R
$$

  *****  SOME WEATHER IN NEARBY STATES *****

CITY           SKY/WX    TMP DP  RH WIND       PRES   REMARKS
GLASGOW MT     SUNNY     80  51  36 W7        29.93R
GREAT FALLS MT SUNNY     78  44  29 E6        29.96F
CHEYENNE WY    CLOUDY    67  45  45 NE6       30.20S
SCOTTSBLUFF NE CLOUDY    68  48  48 SE14      30.11F
OMAHA NE       MOSUNNY   73  48  41 NE6       30.15S
DES MOINES IA  CLOUDY    65  55  70 NE8       30.16F
DAVENPORT IA   CLOUDY    62  57  83 N9        30.12S
CHICAGO IL     CLOUDY    63  59  87 NE10      30.08S
EAU CLAIRE WI  CLOUDY    69  50  50 NE3       30.20S
LA CROSSE WI   CLOUDY    66  57  72 E3        30.20R
$$

  *****  SOME NATIONAL WEATHER *****

CITY           SKY/WX    TMP DP  RH WIND       PRES   REMARKS
LA GUARDIA NY  LGT RAIN  61  58  90 NE21G30   30.25R FOG
RALEIGH NC     MOCLDY    77  72  84 SE7       29.99R
ATLANTA GA     PTCLDY    71  46  40 W5        30.03S
NEW ORLEANS LA PTCLDY    81  56  42 N6        30.03S
OKLAHOMA CITY  MOSUNNY   74  43  32 CALM      30.12S
ALBUQUERQUE NM CLOUDY    77  47  34 NW6       30.18F
SALT LAKE CITY MOSUNNY   74  48  39 SW12      30.10S
LOS ANGELES CA MOSUNNY   76  60  57 W18       29.96F
BOISE ID       MOSUNNY   85  29  13 SE13      29.90F
SEATTLE WA     MOSUNNY   64  43  46 W8        29.97F
$$

*** WEATHER ACROSS MANITOBA...SASKATCHEWAN AND ONTARIO ***
                ***ONTARIO***

CITY           SKY/WX    TMP DP  RH WIND       PRES   REMARKS
GERALDTON      PTCLDY    64  50  59 E2        30.38F
THUNDER BAY    PTCLDY    63  52  67 E5        30.35S
SIOUX LOOKOUT  MOCLDY    63  50  63 S5        30.33S
TORONTO        MOCLDY    61  48  63 E20G29    30.25R
BIG TROUT LK   CLEAR     61  50  67 S6        30.29F
PICKLE LAKE    MOCLDY    59  48  67 S5        30.35S
DRYDEN         CLEAR     61  52  72 S6        30.32F
KENORA         MOCLDY    57  50  77 S12       30.30F
$$
                *** MANITOBA***

CITY           SKY/WX    TMP DP  RH WIND       PRES   REMARKS
BRANDON        PTSUNNY   63  50  63 SE9       30.11S
DAUPHIN        SUNNY     63  54  72 SE14G21   30.06F
ISLAND LAKE    PTCLDY    64  50  59 S9        30.22S
PILOT MOUND      N/A     63  48  59 S18         N/A
THE PAS        MOSUNNY   64  50  59 SE15G23   30.03R
THOMPSON       MOCLDY    63  52  67 SE5       30.13F
WINNIPEG       CLOUDY    66  52  59 SE14G20   30.19F
LYNN LAKE      LGT RAIN  48  48 100 E14G22    30.12F FOG
CHURCHILL      MOCLDY    45  37  76 E10       30.33F
GILLAM         CLOUDY    54  52  94 E9        30.21F
$$
                ***SASKATCHEWAN***

CITY           SKY/WX    TMP DP  RH WIND       PRES   REMARKS
ESTEVAN        PTSUNNY   57  52  82 E12       30.03R
KINDERSLEY     MOSUNNY   64  52  63 NE10      29.95R
LLOYDMINSTER   CLOUDY    52  48  87 NE15      30.02R
PRINCE ALBERT  MOSUNNY   66  52  59 NE5       29.97R
REGINA         MOSUNNY   68  52  56 SE16      29.98R
YORKTON        MOSUNNY   66  52  59 S9        30.01R
N. BATTLEFORD  MOSUNNY   63  48  59 NE12      29.99F
LA RONGE       CLOUDY    52  50  93 N10       30.08R
SASKATOON      PTSUNNY   68  50  52 NW6       29.98R
SWIFT CURRENT  SUNNY     68  52  56 NE7       29.97S
$$
NOTE: THESE ARE AUTOMATED STATIONS WITH LIMITED QUALITY CONTROL
      "FAIR" INDICATES FEW OR NO CLOUDS BELOW 12,000 FEET WITH NO
      SIGNIFICANT WEATHER AND/OR OBSTRUCTIONS TO VISIBILITY.
      SKY/WX - SKY CONDITION AND SIGNIFICANT WEATHER.
      TMP - AIR TEMPERATURE.    DP   - DEWPOINT TEMPERATURE.
      RH  - RELATIVE HUMIDITY.  PRES - PRESSURE.
      HX  - HEAT INDEX.         WCI  - WIND CHILL INDEX.
$




USA.gov is the U.S. government's official web portal to all federal, state and local government web resources and services.